Time,TemperatureF,DewpointF,PressureIn,WindDirection,WindDirectionDegrees,WindSpeedMPH,WindSpeedGustMPH,Humidity,HourlyPrecipIn,Conditions,Clouds,dailyrainin,SoftwareType,DateUTC
2014-04-23 00:03:00,71.7,68.0,29.88,SSW,202,0.0,-999.0,88,-99.99,,,0.00,weatherlink.com 1.10,2014-04-23 04:03:00,
2014-04-23 00:18:00,71.5,69.0,29.87,SSW,202,0.0,-999.0,90,-99.99,,,0.00,weatherlink.com 1.10,2014-04-23 04:18:00,
2014-04-23 00:33:00,71.5,69.0,29.87,SSW,202,0.0,-999.0,90,-99.99,,,0.00,weatherlink.com 1.10,2014-04-23 04:33:00,
2014-04-23 00:48:00,71.1,68.0,29.87,WNW,288,0.0,-999.0,91,-99.99,,,0.00,weatherlink.com 1.10,2014-04-23 04:48:00,
2014-04-23 01:03:00,71.4,68.0,29.88,WNW,292,1.0,-999.0,89,-99.99,,,0.00,weatherlink.com 1.10,2014-04-23 05:03:00,
2014-04-23 01:18:00,71.1,66.0,29.88,NW,311,0.0,-999.0,83,-99.99,,,0.00,weatherlink.com 1.10,2014-04-23 05:18:00,
2014-04-23 01:33:00,70.9,65.0,29.88,West,278,0.0,-999.0,82,-99.99,,,0.00,weatherlink.com 1.10,2014-04-23 05:33:00,
2014-04-23 01:48:00,70.5,65.0,29.88,WNW,296,0.0,-999.0,82,-99.99,,,0.00,weatherlink.com 1.10,2014-04-23 05:48:00,
2014-04-23 02:03:00,70.0,65.0,29.88,WNW,292,0.0,-999.0,84,-99.99,,,0.00,weatherlink.com 1.10,2014-04-23 06:03:00,
2014-04-23 02:18:00,69.8,65.0,29.87,WNW,290,0.0,-999.0,85,-99.99,,,0.00,weatherlink.com 1.10,2014-04-23 06:18:00,
2014-04-23 02:33:00,69.3,65.0,29.87,WNW,293,0.0,-999.0,86,-99.99,,,0.00,weatherlink.com 1.10,2014-04-23 06:33:00,
2014-04-23 02:48:00,69.1,65.0,29.87,WSW,257,0.0,-999.0,87,-99.99,,,0.00,weatherlink.com 1.10,2014-04-23 06:48:00,
2014-04-23 03:03:00,68.8,65.0,29.87,WNW,298,1.0,-999.0,88,-99.99,,,0.00,weatherlink.com 1.10,2014-04-23 07:03:00,
2014-04-23 03:18:00,68.3,65.0,29.86,NW,313,0.0,-999.0,89,-99.99,,,0.00,weatherlink.com 1.10,2014-04-23 07:18:00,
2014-04-23 03:33:00,68.0,65.0,29.86,WNW,303,0.0,-999.0,90,-99.99,,,0.00,weatherlink.com 1.10,2014-04-23 07:33:00,
2014-04-23 03:48:00,67.8,65.0,29.86,West,274,0.0,-999.0,90,-99.99,,,0.00,weatherlink.com 1.10,2014-04-23 07:48:00,
2014-04-23 04:03:00,67.5,65.0,29.86,WSW,254,0.0,-999.0,91,-99.99,,,0.00,weatherlink.com 1.10,2014-04-23 08:03:00,
2014-04-23 04:18:00,67.3,65.0,29.86,WSW,248,0.0,-999.0,91,-99.99,,,0.00,weatherlink.com 1.10,2014-04-23 08:18:00,
2014-04-23 04:33:00,67.0,65.0,29.86,West,276,0.0,-999.0,92,-99.99,,,0.00,weatherlink.com 1.10,2014-04-23 08:33:00,
2014-04-23 04:48:00,66.6,64.0,29.87,WNW,283,0.0,-999.0,92,-99.99,,,0.00,weatherlink.com 1.10,2014-04-23 08:48:00,
2014-04-23 05:03:00,66.3,64.0,29.86,WNW,288,1.0,-999.0,93,-99.99,,,0.00,weatherlink.com 1.10,2014-04-23 09:03:00,
2014-04-23 05:18:00,66.3,64.0,29.86,WSW,249,0.0,-999.0,93,-99.99,,,0.00,weatherlink.com 1.10,2014-04-23 09:18:00,
2014-04-23 05:33:00,66.1,64.0,29.86,NW,307,0.0,-999.0,93,-99.99,,,0.00,weatherlink.com 1.10,2014-04-23 09:33:00,
2014-04-23 05:48:00,66.0,64.0,29.86,West,273,0.0,-999.0,93,-99.99,,,0.00,weatherlink.com 1.10,2014-04-23 09:48:00,
2014-04-23 06:03:00,65.7,64.0,29.87,WSW,256,0.0,-999.0,94,-99.99,,,0.00,weatherlink.com 1.10,2014-04-23 10:03:00,
2014-04-23 06:18:00,65.3,64.0,29.87,WNW,292,0.0,-999.0,94,-99.99,,,0.00,weatherlink.com 1.10,2014-04-23 10:18:00,
2014-04-23 06:33:00,65.1,63.0,29.88,WNW,286,0.0,-999.0,94,-99.99,,,0.00,weatherlink.com 1.10,2014-04-23 10:33:00,
2014-04-23 06:48:00,64.9,63.0,29.89,WNW,294,0.0,-999.0,94,-99.99,,,0.00,weatherlink.com 1.10,2014-04-23 10:48:00,
2014-04-23 07:03:00,64.9,64.0,29.89,WNW,300,0.0,-999.0,95,-99.99,,,0.00,weatherlink.com 1.10,2014-04-23 11:03:00,
2014-04-23 07:18:00,64.9,64.0,29.90,WSW,250,0.0,-999.0,95,-99.99,,,0.00,weatherlink.com 1.10,2014-04-23 11:18:00,
2014-04-23 07:33:00,65.8,64.0,29.91,West,261,0.0,-999.0,94,-99.99,,,0.00,weatherlink.com 1.10,2014-04-23 11:33:00,
2014-04-23 07:48:00,66.6,65.0,29.91,WNW,287,0.0,-999.0,93,-99.99,,,0.00,weatherlink.com 1.10,2014-04-23 11:48:00,
2014-04-23 08:03:00,67.1,65.0,29.91,NW,313,1.0,-999.0,92,-99.99,,,0.00,weatherlink.com 1.10,2014-04-23 12:03:00,
2014-04-23 08:18:00,67.6,65.0,29.91,WNW,288,2.0,-999.0,91,-99.99,,,0.00,weatherlink.com 1.10,2014-04-23 12:18:00,
2014-04-23 08:33:00,68.9,66.0,29.92,WNW,290,0.0,-999.0,89,-99.99,,,0.00,weatherlink.com 1.10,2014-04-23 12:33:00,
2014-04-23 08:48:00,69.7,66.0,29.92,NW,317,3.0,-999.0,87,-99.99,,,0.00,weatherlink.com 1.10,2014-04-23 12:48:00,
2014-04-23 09:04:00,70.9,67.0,29.92,WNW,285,1.0,-999.0,86,-99.99,,,0.00,weatherlink.com 1.10,2014-04-23 13:04:00,
2014-04-23 09:19:00,71.7,66.0,29.92,NW,309,1.0,-999.0,83,-99.99,,,0.00,weatherlink.com 1.10,2014-04-23 13:19:00,
2014-04-23 09:34:00,72.8,66.0,29.93,NW,317,3.0,-999.0,79,-99.99,,,0.00,weatherlink.com 1.10,2014-04-23 13:34:00,
2014-04-23 09:49:00,73.3,66.0,29.93,West,277,0.0,-999.0,78,-99.99,,,0.00,weatherlink.com 1.10,2014-04-23 13:49:00,
2014-04-23 10:04:00,73.9,66.0,29.94,NW,315,0.0,-999.0,77,-99.99,,,0.00,weatherlink.com 1.10,2014-04-23 14:04:00,
2014-04-23 10:19:00,75.0,67.0,29.93,WSW,249,1.0,-999.0,75,-99.99,,,0.00,weatherlink.com 1.10,2014-04-23 14:19:00,
2014-04-23 10:34:00,75.3,67.0,29.94,NW,306,5.0,-999.0,74,-99.99,,,0.00,weatherlink.com 1.10,2014-04-23 14:34:00,
2014-04-23 10:49:00,75.7,66.0,29.94,WNW,291,1.0,-999.0,72,-99.99,,,0.00,weatherlink.com 1.10,2014-04-23 14:49:00,
2014-04-23 11:04:00,77.0,67.0,29.94,NW,314,2.0,-999.0,70,-99.99,,,0.00,weatherlink.com 1.10,2014-04-23 15:04:00,
2014-04-23 11:19:00,78.6,68.0,29.94,NW,307,1.0,-999.0,69,-99.99,,,0.00,weatherlink.com 1.10,2014-04-23 15:19:00,
2014-04-23 11:49:00,79.1,68.0,29.94,WNW,292,2.0,-999.0,68,-99.99,,,0.00,weatherlink.com 1.10,2014-04-23 15:49:00,
2014-04-23 12:04:00,79.0,67.0,29.93,SSW,198,4.0,-999.0,67,-99.99,,,0.00,weatherlink.com 1.10,2014-04-23 16:04:00,
2014-04-23 12:19:00,79.4,66.0,29.93,SSW,210,4.0,-999.0,64,-99.99,,,0.00,weatherlink.com 1.10,2014-04-23 16:19:00,
2014-04-23 12:34:00,80.0,66.0,29.92,NW,310,3.0,-999.0,63,-99.99,,,0.00,weatherlink.com 1.10,2014-04-23 16:34:00,
2014-04-23 12:49:00,80.8,66.0,29.92,WNW,283,1.0,-999.0,60,-99.99,,,0.00,weatherlink.com 1.10,2014-04-23 16:49:00,
2014-04-23 13:04:00,80.9,67.0,29.92,SW,217,1.0,-999.0,62,-99.99,,,0.00,weatherlink.com 1.10,2014-04-23 17:04:00,
2014-04-23 13:19:00,81.3,67.0,29.91,SSW,213,0.0,-999.0,62,-99.99,,,0.00,weatherlink.com 1.10,2014-04-23 17:19:00,
2014-04-23 13:34:00,82.3,66.0,29.91,ENE,75,1.0,-999.0,59,-99.99,,,0.00,weatherlink.com 1.10,2014-04-23 17:34:00,
2014-04-23 13:49:00,83.7,67.0,29.90,South,171,0.0,-999.0,58,-99.99,,,0.00,weatherlink.com 1.10,2014-04-23 17:49:00,
2014-04-23 14:04:00,83.2,66.0,29.90,WNW,287,3.0,-999.0,57,-99.99,,,0.00,weatherlink.com 1.10,2014-04-23 18:04:00,
2014-04-23 14:19:00,82.6,67.0,29.89,WNW,303,4.0,-999.0,59,-99.99,,,0.00,weatherlink.com 1.10,2014-04-23 18:19:00,
2014-04-23 14:34:00,83.8,66.0,29.89,SSW,211,0.0,-999.0,56,-99.99,,,0.00,weatherlink.com 1.10,2014-04-23 18:34:00,
2014-04-23 14:45:00,-999.0,-99.9,0.00,North,-999,-999.0,-999.0,-999,-99.99,,,0.00,weatherlink.com 1.10,2014-04-23 18:45:00,
2014-04-23 15:14:00,84.1,67.0,29.88,West,276,1.0,-999.0,57,-99.99,,,0.00,weatherlink.com 1.10,2014-04-23 19:14:00,
2014-04-23 15:29:00,84.9,67.0,29.87,West,281,2.0,-999.0,56,-99.99,,,0.00,weatherlink.com 1.10,2014-04-23 19:29:00,
2014-04-23 15:44:00,85.8,67.0,29.87,WSW,254,3.0,-999.0,53,-99.99,,,0.00,weatherlink.com 1.10,2014-04-23 19:44:00,
2014-04-23 15:59:00,84.5,66.0,29.86,WNW,298,2.0,-999.0,54,-99.99,,,0.00,weatherlink.com 1.10,2014-04-23 19:59:00,
2014-04-23 16:14:00,85.6,66.0,29.86,WNW,294,4.0,-999.0,52,-99.99,,,0.00,weatherlink.com 1.10,2014-04-23 20:14:00,
2014-04-23 16:29:00,85.7,67.0,29.86,SE,130,0.0,-999.0,53,-99.99,,,0.00,weatherlink.com 1.10,2014-04-23 20:29:00,
2014-04-23 16:44:00,86.1,66.0,29.86,WSW,242,0.0,-999.0,51,-99.99,,,0.00,weatherlink.com 1.10,2014-04-23 20:44:00,
2014-04-23 16:59:00,86.9,65.0,29.85,NNW,327,0.0,-999.0,49,-99.99,,,0.00,weatherlink.com 1.10,2014-04-23 20:59:00,
2014-04-23 17:14:00,85.7,66.0,29.86,WSW,244,2.0,-999.0,52,-99.99,,,0.00,weatherlink.com 1.10,2014-04-23 21:14:00,
2014-04-23 17:29:00,86.5,66.0,29.86,NNE,25,0.0,-999.0,51,-99.99,,,0.00,weatherlink.com 1.10,2014-04-23 21:29:00,
2014-04-23 17:44:00,86.4,69.0,29.86,South,176,2.0,-999.0,57,-99.99,,,0.00,weatherlink.com 1.10,2014-04-23 21:44:00,
2014-04-23 17:59:00,83.9,69.0,29.86,SE,134,0.0,-999.0,61,-99.99,,,0.00,weatherlink.com 1.10,2014-04-23 21:59:00,
2014-04-23 18:14:00,82.5,68.0,29.86,SE,145,4.0,-999.0,62,-99.99,,,0.00,weatherlink.com 1.10,2014-04-23 22:14:00,
2014-04-23 18:44:00,81.3,68.0,29.87,South,178,4.0,-999.0,65,-99.99,,,0.00,weatherlink.com 1.10,2014-04-23 22:44:00,
2014-04-23 18:59:00,81.0,68.0,29.87,SE,134,0.0,-999.0,65,-99.99,,,0.00,weatherlink.com 1.10,2014-04-23 22:59:00,
2014-04-23 19:14:00,80.7,69.0,29.87,ESE,119,1.0,-999.0,67,-99.99,,,0.00,weatherlink.com 1.10,2014-04-23 23:14:00,
2014-04-23 19:29:00,80.1,69.0,29.88,SE,146,1.0,-999.0,68,-99.99,,,0.00,weatherlink.com 1.10,2014-04-23 23:29:00,
2014-04-23 19:44:00,78.9,68.0,29.88,SE,134,0.0,-999.0,70,-99.99,,,0.00,weatherlink.com 1.10,2014-04-23 23:44:00,
2014-04-23 19:59:00,77.7,68.0,29.89,South,173,1.0,-999.0,71,-99.99,,,0.00,weatherlink.com 1.10,2014-04-23 23:59:00,
2014-04-23 20:14:00,77.1,67.0,29.89,SSW,199,1.0,-999.0,72,-99.99,,,0.00,weatherlink.com 1.10,2014-04-24 00:14:00,
2014-04-23 20:29:00,76.7,67.0,29.90,SE,144,0.0,-999.0,73,-99.99,,,0.00,weatherlink.com 1.10,2014-04-24 00:29:00,
2014-04-23 20:44:00,76.4,68.0,29.90,SE,146,0.0,-999.0,74,-99.99,,,0.00,weatherlink.com 1.10,2014-04-24 00:44:00,
2014-04-23 21:00:00,76.1,68.0,29.90,SE,129,2.0,-999.0,76,-99.99,,,0.00,weatherlink.com 1.10,2014-04-24 01:00:00,
2014-04-23 21:15:00,75.9,68.0,29.90,ESE,111,0.0,-999.0,77,-99.99,,,0.00,weatherlink.com 1.10,2014-04-24 01:15:00,
2014-04-23 21:30:00,75.4,69.0,29.91,SSE,150,1.0,-999.0,79,-99.99,,,0.00,weatherlink.com 1.10,2014-04-24 01:30:00,
2014-04-23 21:45:00,75.1,69.0,29.91,SSE,148,0.0,-999.0,81,-99.99,,,0.00,weatherlink.com 1.10,2014-04-24 01:45:00,
2014-04-23 22:00:00,74.9,69.0,29.91,SSE,159,0.0,-999.0,82,-99.99,,,0.00,weatherlink.com 1.10,2014-04-24 02:00:00,
2014-04-23 22:15:00,74.5,69.0,29.91,ESE,120,0.0,-999.0,83,-99.99,,,0.00,weatherlink.com 1.10,2014-04-24 02:15:00,
2014-04-23 22:30:00,74.5,69.0,29.91,ESE,117,0.0,-999.0,84,-99.99,,,0.00,weatherlink.com 1.10,2014-04-24 02:30:00,